Lexington Weather

Lexington, Massachusetts, USA

23°F
3/3/2021 2:59am 
  • Lexington Conditions: Few Clouds
  • Temperature: 23.2°F / -4.9°CWarmer 1.8°F than last hour.
  • Dew Point: 10.6°FIncreased 2.0°Fsince last hour.
  • Relative Humidity: 58%Increased 1.0% since last hour.
  • Wind: Wind from WSW WSW 1 mph, 10-min avg: 1 mph, gust: 5 mph
  • Barometer: 29.86 inFalling 0.04  inHg/hr Falling Slowly
  • Visibility: 10 miles
  • Snow Today: 0.0 in
  •   

Regional Weather Roundup
for Boston / Norton, MA

        
000
ASUS41 KBOX 020804
RWRBOX

REGIONAL WEATHER ROUNDUP
NATIONAL WEATHER SERVICE BOSTON/NORTON MA
300 AM EST TUE MAR 02 2021

NOTE:  "FAIR" INDICATES FEW OR NO CLOUDS BELOW 12,000 FEET WITH NO 
SIGNIFICANT WEATHER AND/OR OBSTRUCTIONS TO VISIBILITY.

MAZALL-020900-
EASTERN MASSACHUSETTS
  
CITY           SKY/WX    TMP DP  RH WIND       PRES   REMARKS
BOSTON         MOCLDY    20   1  43 W28G39    29.78R WCI   2          
BEVERLY        PTCLDY    20  -6  31 W26G40    29.75R WCI   2          
LAWRENCE       CLOUDY    18  -4  37 NW28G39   29.78R WCI  -1          
BEDFORD        FLURRIES  19   2  47 NW28G41   29.78R WCI   1          
BLUE HILL        N/A     17   5  59 NW20G39   29.71R WCI   1          
NORWOOD        FLURRIES  21   4  47 NW30G40   29.79R WCI   3          
MARSHFIELD     PTCLDY    23   1  39 NW20G32   29.76R WCI   8          
PLYMOUTH       PTCLDY    21  -3  35 W23G36    29.75R WCI   5          
TAUNTON        CLEAR     22  -4  32 W14G35    29.79R WCI   9          
NEW BEDFORD      N/A    N/A N/A N/A MISG      29.80R                  
$$

MAZALL-020900-
CAPE COD AND THE ISLANDS
  
CITY           SKY/WX    TMP DP  RH WIND       PRES   REMARKS
FALMOUTH       CLEAR     21  -2  35 NW32G46   29.77R WCI   2          
HYANNIS        CLEAR     23  -1  35 W15G28    29.72R WCI  10          
CHATHAM        MOCLDY    24   3  40 W13G23    29.74R WCI  12          
PROVINCETOWN   CLOUDY    24  10  55 W35G44    29.72R WCI   6          
NANTUCKET        N/A    N/A N/A N/A MISG      29.76R                  
MARTHAS VNYRD  PTCLDY    24   2  38 W22G43    29.79R WCI   9          
$$
 
MAZALL-020900-
CENTRAL AND WESTERN MASSACHUSETTS
  
CITY           SKY/WX    TMP DP  RH WIND       PRES   REMARKS
WORCESTER      CLOUDY    16  -3  43 NW36G49   29.75R WCI  -6          
FITCHBURG      MOCLDY    16   2  54 NW23G45   29.81R WCI  -2          
ORANGE         PTCLDY    14  -8  37 NW25G39   29.86R WCI  -5          
SPRINGFIELD    DRIZZLE   18   0  45 NW29G47   29.86F WCI  -2          
WESTFIELD      MOCLDY    17   1  49 NW21G39   29.89R WCI   0          
NORTH ADAMS    CLOUDY    14  -4  44 W18G28    29.93R WCI  -3          
PITTSFIELD     CLOUDY    11   1  64 NW24G35   29.88R WCI  -9          
$$
 
RIZALL-020900-
RHODE ISLAND
  
CITY           SKY/WX    TMP DP  RH WIND       PRES   REMARKS
PROVIDENCE     CLEAR     21  -3  35 W22G41    29.83R WCI   5          
NEWPORT        PTCLDY    21  -1  38 NW25G43   29.83R WCI   4          
BLOCK ISLAND   PTCLDY    23   5  46 NW22G38   29.88R WCI   8          
SMITHFIELD     CLEAR     17   0  47 W22G41    29.80R WCI   0          
WESTERLY       CLEAR     21  -3  35 NW10G30   29.88R WCI  10          
$$
 
CTZALL-020900-
CONNECTICUT
  
CITY           SKY/WX    TMP DP  RH WIND       PRES   REMARKS
BRADLEY INTL   PTCLDY    18  -3  39 NW33G53   29.91R WCI  -2          
HARTFORD       PTCLDY    21  -2  36 NW23G36   29.94R WCI   5          
BRIDGEPORT     CLEAR     24  -2  32 NW25G39   29.97  WCI   8          
DANBURY        PTCLDY    22   0  38 W15G28    29.98R WCI   9          
GROTON         CLEAR     23   1  38 W24G39    29.89R WCI   7          
NEW HAVEN      MOCLDY    26   5  40 NW16G33   29.94R WCI  14          
CHESTER        FAIR      21   3  45 NW12G32   29.89R WCI   9          
MERIDEN        FLURRIES  22   3  44 NW16G30   29.95R WCI   8          
WILLIMANTIC    PTCLDY    20  -1  40 NW20G32   29.90R WCI   4          
OXFORD         PTCLDY    19   2  47 NW18G31   29.92R WCI   4          
$$

MEZ002-015-021-024-NHZ003-005-008-011-012-014-VTZ005-008-020900-
NORTHERN NEW ENGLAND
  
CITY           SKY/WX    TMP DP  RH WIND       PRES   REMARKS
PORTLAND ME    MOCLDY    12  -7  42 NW24G37   29.68R WCI  -8          
BANGOR ME      MOCLDY    10 -12  36 NW24G37   29.49R WCI -10          
CONCORD NH     MOCLDY    13  -7  40 NW28G40   29.76R WCI  -8          
MANCHESTER NH  MOCLDY    15  -9  33 NW25G44   29.78R WCI  -4          
NASHUA NH      MOCLDY    16  -5  39 W17G29    29.81R WCI   0          
PORTSMOUTH NH  PTCLDY    15 -10  31 W30G45    29.72R WCI  -5          
JAFFREY NH     MOCLDY    12  -7  42 NW13G28   29.75R WCI  -3          
KEENE NH       CLOUDY    12  -4  48 NW21G32   29.86R WCI  -7          
BURLINGTON VT  MOCLDY     6 -11  45 W22G36    29.95R WCI -15          
MT. WASHINGTON SNOWSHWR -22 -22 100 NW104G128   N/A  VSB 1/16WCI -69  
$$

NYZ052-076-020900-
EASTERN NEW YORK
  
CITY           SKY/WX    TMP DP  RH WIND       PRES   REMARKS
ALBANY         PTCLDY    12  -5  46 NW18G29   30.02R WCI  -6          
NEW YORK CITY  PTCLDY    27   4  37 W26G46    30.03R WCI  12          
$$
 
ANZALL-020900-
MARINE OBSERVATIONS
  
STATION/POSITION TIME  TEMP    WIND        PRES    VSBY  WAVE
                       AIR SEA DIR/SP/G                  HT/PER
                 (UTC) (F)     (DEG/KT/KT) (MB)    (MI)  (FT/S)
BOSTON BUOY      0740   25 39  290/ 33/ 45 1007.2R
BUZZARDS BAY     0700          300/ 36/ 41 1008.9R
NANTUCKET SOUND  0740      37  280/ 35/ 47   N/A
MASS BAY-STELLWA 0704   24     270/ 27/ 37 1004.3R  1 7/8  5/ 5
ISLE OF SHOALS   0700   20     290/ 39/ 45 1003.3R
S OF BLOCK IS    0726      40                N/A          11/ 8
$$

......................KEY.........................
  SKY/WX - SKY CONDITION/PRESENT WEATHER
  TMP    - TEMPERATURE IN FAHRENHEIT
  DWPT   - DEWPOINT IN FAHRENHEIT
  RH     - RELATIVE HUMIDITY IN PERCENT
  WIND   - DIRECTION AND SPEED IN MPH
  PRES   - MEAN SEA LEVEL PRESSURE IN INCHES OF HG
  WCI    - WIND CHILL INDEX
  VSB    - VISIBILITY IN MILES
  HX     - HEAT INDEX
  TC     - TEMPERATURE IN CELSIUS
  VRB    - VARIABLE WIND DIRECTION
  N/A    - NOT AVAILABLE
  
      

Other recent Regional Weather Roundups

Wed Mar 3, 2:04am

Wed Mar 3, 1:04am

Wed Mar 3, 12:04am

Tue Mar 2, 11:04pm

Tue Mar 2, 10:05pm

Tue Mar 2, 9:04pm

Tue Mar 2, 8:04pm

Tue Mar 2, 7:04pm

Tue Mar 2, 6:04pm

Tue Mar 2, 5:04pm

Tue Mar 2, 4:05pm

Tue Mar 2, 3:04pm

Tue Mar 2, 2:04pm

Tue Mar 2, 1:04pm

Tue Mar 2, 12:04pm

Tue Mar 2, 11:04am

Tue Mar 2, 10:05am

Tue Mar 2, 9:04am

Tue Mar 2, 8:04am

Tue Mar 2, 7:04am

Tue Mar 2, 6:05am

Tue Mar 2, 5:04am

Tue Mar 2, 4:04am

Tue Mar 2, 2:04am

Tue Mar 2, 1:04am

Tue Mar 2, 12:04am

Mon Mar 1, 11:04pm

Mon Mar 1, 10:04pm

Mon Mar 1, 9:04pm

Mon Mar 1, 8:04pm

Mon Mar 1, 7:04pm

Mon Mar 1, 6:04pm

Mon Mar 1, 5:04pm

Mon Mar 1, 4:05pm

Mon Mar 1, 3:05pm

Mon Mar 1, 2:04pm

Mon Mar 1, 1:04pm

Mon Mar 1, 12:04pm

Mon Mar 1, 11:04am

Mon Mar 1, 10:04am

Mon Mar 1, 9:04am

Mon Mar 1, 8:05am

Mon Mar 1, 7:04am

Mon Mar 1, 6:04am

Mon Mar 1, 5:04am

Mon Mar 1, 4:05am

Mon Mar 1, 3:04am

Mon Mar 1, 2:04am

Mon Mar 1, 1:04am

Mon Mar 1, 12:05am

Sun Feb 28, 11:04pm

Sun Feb 28, 10:04pm

Sun Feb 28, 9:04pm

Sun Feb 28, 8:04pm

Sun Feb 28, 7:04pm

Sun Feb 28, 6:05pm

Sun Feb 28, 5:04pm

Sun Feb 28, 4:05pm

Sun Feb 28, 3:04pm

Sun Feb 28, 2:04pm

Sun Feb 28, 1:04pm

Sun Feb 28, 12:04pm

Sun Feb 28, 11:04am

Sun Feb 28, 10:04am

Sun Feb 28, 9:04am

Sun Feb 28, 8:04am

Sun Feb 28, 7:04am

Sun Feb 28, 6:04am

Sun Feb 28, 5:04am

Sun Feb 28, 4:04am

Sun Feb 28, 3:04am

Sun Feb 28, 2:04am

Sun Feb 28, 1:04am

Sun Feb 28, 12:04am

Sat Feb 27, 11:04pm

Sat Feb 27, 10:04pm

Sat Feb 27, 9:04pm

Sat Feb 27, 8:04pm

Sat Feb 27, 7:04pm

Sat Feb 27, 6:04pm

Sat Feb 27, 5:04pm

Sat Feb 27, 4:04pm

Sat Feb 27, 3:05pm

Sat Feb 27, 2:05pm

Sat Feb 27, 1:04pm

Sat Feb 27, 12:04pm

Sat Feb 27, 11:04am

Sat Feb 27, 10:04am

Sat Feb 27, 9:05am

Sat Feb 27, 8:04am

Sat Feb 27, 7:04am

Sat Feb 27, 6:04am

Sat Feb 27, 5:04am

Sat Feb 27, 4:04am

Sat Feb 27, 3:04am

Sat Feb 27, 2:04am

Sat Feb 27, 1:04am

Sat Feb 27, 12:04am

Fri Feb 26, 11:04pm

Fri Feb 26, 10:04pm

Fri Feb 26, 9:04pm

Fri Feb 26, 8:04pm

Fri Feb 26, 7:04pm

Fri Feb 26, 6:04pm

Fri Feb 26, 5:04pm

Fri Feb 26, 4:04pm

Fri Feb 26, 3:04pm

Fri Feb 26, 2:04pm

Fri Feb 26, 1:04pm

Fri Feb 26, 12:04pm

Fri Feb 26, 11:04am

Fri Feb 26, 10:04am

Fri Feb 26, 9:04am

Fri Feb 26, 8:04am

Fri Feb 26, 7:04am

Fri Feb 26, 6:04am

Fri Feb 26, 5:04am

Fri Feb 26, 4:04am

Fri Feb 26, 3:04am

Fri Feb 26, 2:04am

Fri Feb 26, 1:04am

Fri Feb 26, 12:04am

Thu Feb 25, 11:04pm

Thu Feb 25, 10:04pm

Thu Feb 25, 9:04pm

Thu Feb 25, 8:05pm

Thu Feb 25, 7:05pm

Thu Feb 25, 6:04pm

Thu Feb 25, 5:04pm

Thu Feb 25, 4:05pm

Thu Feb 25, 3:05pm

Thu Feb 25, 2:04pm

Thu Feb 25, 1:04pm

Thu Feb 25, 12:05pm

Thu Feb 25, 11:04am

Thu Feb 25, 10:04am

Thu Feb 25, 9:04am

Thu Feb 25, 8:04am

Thu Feb 25, 7:04am

Thu Feb 25, 6:04am

Thu Feb 25, 5:04am

Thu Feb 25, 4:04am

Thu Feb 25, 3:04am

Thu Feb 25, 2:04am

Thu Feb 25, 1:04am

Thu Feb 25, 12:04am

Wed Feb 24, 11:04pm

Wed Feb 24, 10:05pm

Wed Feb 24, 9:04pm

Wed Feb 24, 8:04pm

Wed Feb 24, 7:04pm

Wed Feb 24, 6:04pm

Wed Feb 24, 5:04pm

Wed Feb 24, 4:04pm

Wed Feb 24, 3:04pm

Wed Feb 24, 2:05pm

Wed Feb 24, 1:05pm

Wed Feb 24, 12:05pm

Wed Feb 24, 11:04am

Wed Feb 24, 10:04am

Wed Feb 24, 9:04am

Wed Feb 24, 8:04am

Wed Feb 24, 7:04am

Wed Feb 24, 6:04am

Wed Feb 24, 5:04am

Wed Feb 24, 4:04am

Wed Feb 24, 3:04am

Meta data:

ID: 0cbda8d4-767a-4fba-8df6-32a36c3307e6
Link: https://api.weather.gov/products/0cbda8d4-767a-4fba-8df6-32a36c3307e6